TimeEDT,TemperatureF,Dew PointF,Humidity,Sea Level PressureIn,VisibilityMPH,Wind Direction,Wind SpeedMPH,Gust SpeedMPH,PrecipitationIn,Events,Conditions,WindDirDegrees,DateUTC
12:53 AM,69.1,60.1,73,30.16,10.0,Calm,Calm,-,N/A,,Clear,0,2013-06-21 04:53:00
1:53 AM,66.9,60.1,79,30.17,10.0,Calm,Calm,-,N/A,,Clear,0,2013-06-21 05:53:00
2:53 AM,66.9,60.1,79,30.17,10.0,Calm,Calm,-,N/A,,Clear,0,2013-06-21 06:53:00
3:53 AM,64.0,59.0,84,30.16,10.0,Calm,Calm,-,N/A,,Clear,0,2013-06-21 07:53:00
4:53 AM,64.9,60.1,84,30.16,10.0,Calm,Calm,-,N/A,,Clear,0,2013-06-21 08:53:00
5:53 AM,64.0,59.0,84,30.17,10.0,Calm,Calm,-,N/A,,Clear,0,2013-06-21 09:53:00
6:53 AM,63.0,59.0,87,30.17,10.0,Calm,Calm,-,N/A,,Clear,0,2013-06-21 10:53:00
7:53 AM,69.1,60.1,73,30.18,10.0,SE,3.5,-,N/A,,Clear,140,2013-06-21 11:53:00
8:53 AM,73.0,61.0,66,30.17,10.0,SSE,6.9,-,N/A,,Clear,160,2013-06-21 12:53:00
9:53 AM,77.0,61.0,58,30.19,10.0,South,4.6,-,N/A,,Clear,170,2013-06-21 13:53:00
10:53 AM,80.1,61.0,52,30.15,10.0,SSE,6.9,-,N/A,,Clear,160,2013-06-21 14:53:00
11:53 AM,82.0,61.0,49,30.18,10.0,SSE,8.1,-,N/A,,Clear,150,2013-06-21 15:53:00
12:53 PM,84.0,61.0,46,30.17,10.0,SSE,6.9,-,N/A,,Partly Cloudy,160,2013-06-21 16:53:00
1:53 PM,84.9,57.9,40,30.15,10.0,SSW,10.4,17.3,N/A,,Clear,200,2013-06-21 17:53:00
2:53 PM,84.9,59.0,41,30.14,10.0,SSE,9.2,17.3,N/A,,Clear,160,2013-06-21 18:53:00
3:53 PM,84.9,60.1,43,30.12,10.0,Variable,6.9,16.1,N/A,,Scattered Clouds,0,2013-06-21 19:53:00
4:53 PM,86.0,62.1,44,30.10,10.0,South,6.9,-,N/A,,Clear,190,2013-06-21 20:53:00
5:53 PM,86.0,62.1,44,30.11,10.0,Variable,3.5,-,N/A,,Partly Cloudy,0,2013-06-21 21:53:00
6:53 PM,84.9,64.0,49,30.12,10.0,Variable,5.8,-,N/A,,Clear,0,2013-06-21 22:53:00
7:53 PM,82.9,64.9,54,30.12,10.0,Variable,3.5,-,N/A,,Clear,0,2013-06-21 23:53:00
8:53 PM,75.9,64.0,67,30.11,10.0,North,3.5,-,N/A,,Clear,10,2013-06-22 00:53:00
9:53 PM,75.0,64.0,69,30.03,10.0,SSE,5.8,-,N/A,,Clear,150,2013-06-22 01:53:00
10:53 PM,78.1,64.9,64,30.04,10.0,SE,5.8,-,N/A,,Mostly Cloudy,140,2013-06-22 02:53:00
11:53 PM,77.0,66.0,69,30.09,10.0,Calm,Calm,-,N/A,,Clear,0,2013-06-22 03:53:00